CAPE
0 0 0 18 9 10 9 0 0 0 0 0 0 0 0 8 0 0 0 47 388 449 797 916 1080 1359 1309 1430 1495 1593 1738 1805 1744 1829 1989 1986 1885 1938 1803 1608 1549 1171 603 359 112 229 477 451 445
0 0 5 6 0 1 2 5 0 0 0 2 4 0 0 3 0 0 0 746 442 543 702 772 1044 1270 1277 1389 1471 1439 1557 1598 1775 1700 1606 1662 1535 1518 1529 1412 1377 1230 561 88 17 36 304 369 438
0 0 0 0 0 0 0 5 28 2 16 6 36 29 2 0 0 0 105 906 599 410 615 762 952 1133 1218 1282 1388 1454 1516 1598 1700 1722 1566 1384 1317 1242 1287 1301 1251 1105 510 102 20 16 68 152 191
0 0 0 0 0 0 1 28 62 47 20 43 30 36 29 5 0 145 531 625 1344 459 564 725 795 1021 1156 1227 1243 1213 1113 1087 1339 1563 1628 1406 1194 1157 1159 1140 1163 1142 516 259 43 81 116 137 104
0 0 0 0 0 0 24 63 109 50 85 32 24 28 30 52 278 400 552 635 902 864 554 531 671 933 1134 1134 1005 923 856 885 1071 1282 1412 1480 1269 1136 1170 964 858 1067 701 472 129 75 47 10 1
0 0 0 0 0 13 149 124 156 97 33 5 14 8 0 69 151 340 377 438 947 844 425 468 651 857 992 938 698 561 610 712 808 901 1032 1093 967 1002 1015 947 857 834 812 578 275 70 3 0 0
0 0 0 0 0 74 219 130 128 119 19 9 8 0 0 0 113 265 314 505 874 839 387 502 645 747 767 644 501 474 517 560 593 651 735 665 567 619 815 778 749 649 450 257 173 11 0 0 0
0 0 0 0 27 81 195 207 157 101 76 79 3 0 0 2 181 166 243 428 834 549 510 708 592 593 555 551 495 461 471 478 502 536 495 356 363 488 558 592 641 502 328 126 6 0 0 0 0
0 0 0 0 10 117 232 201 137 120 75 111 57 77 162 173 166 103 149 288 441 549 687 468 436 384 417 431 465 430 432 392 400 435 423 283 191 206 271 331 397 461 294 135 31 0 0 0 0
0 0 0 0 0 189 247 95 32 68 43 57 87 123 109 156 148 59 60 46 106 230 322 592 735 880 492 392 432 326 336 273 237 212 201 84 18 12 55 111 207 301 226 138 46 2 0 0 0
0 0 0 0 0 15 38 0 12 42 51 124 110 167 173 192 198 207 202 225 191 66 287 757 623 769 504 519 365 274 246 150 99 73 32 0 0 0 0 0 0 23 55 30 0 0 0 0 0
0 0 0 0 0 0 7 0 10 6 26 180 177 205 213 224 225 238 285 319 388 369 140 178 207 408 353 404 350 258 223 151 80 57 45 14 0 0 0 0 0 0 0 0 0 0 0 0 0
0 0 0 0 0 0 0 0 0 0 91 188 249 241 285 272 295 367 405 403 398 501 545 180 147 277 315 328 266 231 183 108 79 11 23 21 13 2 0 0 0 0 0 0 0 0 0 0 0
0 0 0 0 0 0 0 0 0 0 5 137 234 318 370 395 382 327 222 153 406 586 718 556 215 185 295 310 276 311 298 235 227 149 130 148 137 116 93 68 40 5 1 0 0 11 0 0 0
0 0 0 0 0 0 0 0 0 0 0 53 79 149 285 234 163 128 192 295 424 646 762 879 745 431 388 396 304 325 469 493 508 292 155 82 82 132 144 68 111 111 188 161 76 0 41 94 51
0 0 0 0 0 0 0 0 0 0 0 0 92 178 236 199 131 48 22 180 317 573 782 934 832 697 701 693 538 501 496 466 185 409 269 251 311 46 50 74 53 123 159 168 208 208 95 40 75
0 0 0 0 0 0 0 0 0 0 0 0 0 0 0 0 0 0 0 0 60 268 502 548 739 761 586 648 495 406 392 371 287 210 163 146 124 107 91 116 169 112 45 77 141 226 172 147 134
0 0 0 0 0 0 0 0 0 0 0 0 0 0 0 0 0 0 0 0 0 24 75 194 447 460 413 508 507 432 370 347 173 140 55 74 59 94 75 21 36 74 112 108 111 121 146 90 156
0 0 0 0 0 0 0 0 0 0 0 0 0 0 0 0 0 0 0 0 0 0 0 5 6 77 116 95 73 19 66 90 73 0 0 0 0 0 0 0 0 14 52 73 24 30 31 71 74
13 3 0 0 0 0 0 0 0 0 0 0 0 0 0 0 0 0 0 0 0 0 0 0 0 7 16 0 11 15 7 0 0 0 0 0 0 0 0 0 0 0 0 0 0 0 4 8 4
7 5 0 0 0 0 0 0 0 0 0 0 0 0 0 0 0 0 0 0 0 0 0 0 0 0 0 0 0 0 0 0 0 0 0 0 0 0 0 0 0 0 0 0 0 0 0 0 0
0 0 0 0 0 0 0 0 0 0 0 0 0 0 0 0 0 0 0 0 0 0 0 0 0 0 0 0 0 0 0 0 0 0 0 0 0 0 0 0 0 0 0 0 0 0 0 0 0
0 0 0 0 0 0 0 0 0 0 0 0 0 0 0 0 0 0 0 0 0 0 0 0 0 0 0 0 0 0 0 0 0 0 0 0 0 0 0 0 0 0 0 0 0 0 0 0 0
0 0 0 0 0 0 0 0 0 0 0 0 0 0 0 0 0 0 0 0 0 0 0 0 0 0 0 0 0 0 0 0 0 0 0 0 0 0 0 0 0 0 0 0 0 0 0 0 0
0 0 0 0 0 0 0 0 0 0 0 0 0 0 0 0 0 0 0 0 0 0 0 0 0 0 0 0 0 0 0 0 0 0 0 0 0 0 0 0 0 0 0 0 0 0 0 0 0
0 0 0 0 0 0 0 0 0 0 0 0 0 0 0 0 0 0 0 0 0 0 0 0 0 0 0 0 0 0 0 0 0 0 0 0 0 0 0 0 0 0 0 0 0 0 0 0 0
0 0 0 0 0 0 0 0 0 0 0 0 0 0 0 0 0 0 0 0 0 0 0 0 0 0 0 0 0 0 0 0 0 0 0 0 0 0 0 0 0 0 0 0 0 0 0 0 0
0 0 0 0 0 0 0 0 0 0 0 0 0 0 0 0 0 0 0 0 0 0 0 0 0 0 0 0 0 0 0 0 0 0 0 0 0 0 0 0 0 0 0 0 0 0 0 0 0
0 0 0 0 0 0 0 0 0 0 0 0 0 0 0 0 0 0 0 0 0 0 0 0 0 0 0 0 0 0 0 0 0 0 0 0 0 0 0 0 0 0 0 0 0 0 0 0 0
0 0 0 0 0 0 0 0 0 0 0 0 0 0 0 0 0 0 0 0 0 0 0 0 0 0 0 0 0 0 0 0 0 0 0 0 0 0 0 0 0 0 0 0 0 0 0 0 0
CIN
0 0 -28 -29 -5 -20 -46 -9 0 0 0 0 0 0 0 -122 0 0 0 -278 -100 -78 -31 -10 -20 -23 -54 -49 -15 0 0 0 0 0 0 0 0 0 0 0 0 -8 -37 -46 -67 -39 -13 -13 -13
0 0 -29 -28 -7 -6 -8 -28 -16 0 0 -97 -131 0 0 -223 0 0 0 -49 -84 -71 -48 -24 -29 -24 -54 -54 -23 -2 0 0 0 0 0 0 0 -1 -1 -1 -1 -1 -38 -146 -217 -174 -29 -16 -7
0 0 0 0 0 0 0 -32 -32 -42 -205 -198 -279 -339 -115 0 0 0 -353 -41 -55 -66 -48 -32 -45 -46 -58 -46 -19 -3 0 0 0 0 0 0 0 0 0 -1 -1 0 -41 -148 -248 -258 -180 -105 -77
0 0 0 0 0 0 -5 -33 -30 -183 -108 -236 -338 -394 -471 -536 0 -445 -175 -96 -10 -60 -47 -44 -62 -48 -59 -58 -29 -9 -10 -6 0 0 0 0 0 0 0 -1 -1 0 -27 -79 -188 -181 -162 -134 -145
0 0 0 0 0 0 -245 -41 -221 -175 -23 -153 -353 -471 -477 -580 -395 -305 -198 -111 -43 -34 -52 -65 -74 -53 -49 -57 -60 -48 -30 -12 -1 0 0 0 0 0 -1 -1 -2 -1 -3 -28 -105 -163 -187 -260 -83
0 0 0 0 0 -110 -137 -226 -209 -62 -21 -164 -442 -502 0 -558 -484 -321 -277 -188 -37 -39 -85 -71 -56 -41 -52 -65 -87 -99 -77 -42 -17 -3 0 0 -1 0 -1 -16 -11 -2 0 -9 -70 -166 -135 0 0
0 0 0 0 0 -67 -96 -113 -61 -38 -26 -315 -394 0 0 0 -501 -362 -308 -165 -40 -26 -80 -54 -42 -34 -43 -73 -97 -100 -87 -65 -50 -21 -3 -4 -14 -14 0 -3 -19 -43 -50 -57 -108 -224 0 0 0
0 0 0 0 -132 -45 -72 -82 -45 -62 -160 -285 -36 0 0 -23 -414 -403 -313 -175 -27 -59 -51 -28 -37 -40 -52 -59 -78 -89 -80 -71 -60 -44 -48 -71 -58 -24 -13 -16 -12 -18 -57 -125 -87 0 0 0 0
0 0 0 0 -109 -84 -122 -114 -98 -172 -251 -230 -560 -530 -471 -442 -396 -411 -344 -224 -127 -64 -18 -35 -40 -63 -70 -73 -67 -67 -63 -69 -68 -61 -61 -88 -117 -117 -96 -77 -64 -51 -82 -117 -212 0 0 0 0
0 0 0 0 0 -105 -91 -136 -318 -287 -392 -448 -505 -302 -294 -267 -264 -338 -312 -396 -308 -198 -124 -33 -12 -5 -33 -50 -53 -75 -69 -79 -83 -92 -103 -148 -133 -78 -173 -153 -119 -90 -110 -148 -203 -37 0 0 0
0 0 0 0 0 -41 -130 0 -291 -301 -334 -331 -312 -287 -266 -222 -191 -180 -169 -146 -149 -311 -131 -25 -34 -12 -27 -22 -50 -72 -79 -104 -118 -121 -152 0 0 0 0 0 -19 -209 -181 -122 0 0 0 0 0
0 0 0 0 0 0 -184 0 -216 -64 -297 -324 -307 -248 -239 -223 -151 -135 -125 -95 -39 -43 -114 -191 -138 -61 -72 -56 -60 -79 -85 -103 -156 -184 -185 -242 0 0 0 0 0 0 0 0 0 0 0 0 0
0 0 0 0 0 0 0 0 0 0 -299 -301 -314 -293 -237 -226 -194 -121 -75 -52 -39 -21 -17 -167 -164 -71 -63 -57 -75 -88 -85 -117 -114 -246 -163 -167 -179 -91 0 0 0 0 0 0 0 0 0 0 0
0 0 0 0 0 0 0 0 0 0 -52 -267 -272 -248 -213 -185 -153 -128 -119 -101 -85 -29 -11 -10 -69 -95 -25 -30 -33 -28 -31 -31 -48 -95 -114 -97 -88 -60 -90 -93 -106 -17 -1 0 0 -75 0 0 0
0 0 0 0 0 0 0 0 0 0 0 -215 -234 -255 -205 -209 -210 -220 -166 -129 -79 -37 -13 -3 -3 -1 -28 -14 -37 -30 -15 -17 -8 -27 -68 -91 -75 -63 -43 -60 -60 -69 -41 -36 -50 0 -65 -34 -52
0 0 0 0 0 0 0 0 0 0 0 0 -182 -146 -144 -167 -191 -210 -214 -156 -89 -38 -15 0 0 -9 -7 -4 -9 -6 -4 -2 -17 -10 -24 -19 -13 -107 -72 -58 -92 -63 -36 -31 -32 -22 -34 -78 -49
0 0 0 0 0 0 0 0 0 0 0 0 0 0 0 0 0 0 0 0 -197 -92 -25 -6 0 0 -2 0 -1 -7 0 0 -1 -12 -2 -3 -6 -15 -31 -19 -15 -33 -57 -42 -38 -29 -20 -29 -31
0 0 0 0 0 0 0 0 0 0 0 0 0 0 0 0 0 0 0 0 0 -119 -144 -57 -11 -1 0 0 0 0 0 0 0 -4 -25 -28 -18 -15 -5 -13 -14 -6 -9 -9 -15 -18 -15 -19 -5
-11 0 0 0 0 0 0 0 0 0 0 0 0 0 0 0 0 0 0 0 0 0 -1 0 -11 -63 -7 -11 -19 -10 -22 -6 -4 0 0 0 0 0 0 0 0 -8 -12 -6 -9 -29 -21 -11 -4
-27 -2 0 0 0 0 0 0 0 0 0 0 0 0 0 0 0 0 0 0 0 0 0 0 0 -1 -17 0 -2 -3 -31 0 0 0 0 0 0 0 0 0 0 0 0 0 0 0 -13 -4 -15
-4 -9 0 0 0 0 0 0 0 0 0 0 0 0 0 0 0 0 0 0 0 0 0 0 0 0 0 0 0 0 0 0 0 0 0 0 0 0 0 0 0 0 0 0 0 0 0 0 0
0 0 0 0 0 0 0 0 0 0 0 0 0 0 0 0 0 0 0 0 0 0 0 0 0 0 0 0 0 0 0 0 0 0 0 0 0 0 0 0 0 0 0 0 0 0 0 0 0
0 0 0 0 0 0 0 0 0 0 0 0 0 0 0 0 0 0 0 0 0 0 0 0 0 0 0 0 0 0 0 0 0 0 0 0 0 0 0 0 0 0 0 0 0 0 0 0 0
0 0 0 0 0 0 0 0 0 0 0 0 0 0 0 0 0 0 0 0 0 0 0 0 0 0 0 0 0 0 0 0 0 0 0 0 0 0 0 0 0 0 0 0 0 0 0 0 0
0 0 0 0 0 0 0 0 0 0 0 0 0 0 0 0 0 0 0 0 0 0 0 0 0 0 0 0 0 0 0 0 0 0 0 0 0 0 0 0 0 0 0 0 0 0 0 0 0
-4 0 0 0 0 0 0 0 0 0 0 0 0 0 0 0 0 0 0 0 0 0 0 0 0 0 0 0 0 0 0 0 0 0 0 0 0 0 0 0 0 0 0 0 0 0 0 0 0
-6 0 0 0 0 0 0 0 0 0 0 0 0 0 0 0 0 0 0 0 0 0 0 0 0 0 0 0 0 0 0 0 0 0 0 0 0 0 0 0 0 0 0 0 0 0 0 0 0
0 0 0 0 0 0 0 0 0 0 0 0 0 0 0 0 0 0 0 0 0 0 0 0 0 0 0 0 0 0 0 0 0 0 0 0 0 0 0 0 0 0 0 0 0 0 0 0 0
0 0 0 0 0 0 0 0 0 0 0 0 0 0 0 0 0 0 0 0 0 0 0 0 0 0 0 0 0 0 0 0 0 0 0 0 0 0 0 0 0 0 0 0 0 0 0 0 0
0 0 0 0 0 0 0 0 0 0 0 0 0 0 0 0 0 0 0 0 0 0 0 0 0 0 0 0 0 0 0 0 0 0 0 0 0 0 0 0 0 0 0 0 0 0 0 0 0
Wind_Speed
nan nan nan nan nan nan nan nan nan nan nan nan nan nan nan nan nan nan nan nan 22 25 17 19 22 22 21 18 17 15 12 10 8 6 5 5 5 4 4 2 1 3 4 5 4 5 6 8 8
nan nan nan nan nan nan nan nan nan nan nan nan nan nan nan nan nan nan nan 25 22 22 18 17 21 21 20 18 15 14 13 11 11 9 7 5 5 3 3 2 3 3 5 nan nan nan 7 8 9
nan nan nan nan nan nan nan nan nan nan nan nan nan nan nan nan nan nan 20 24 24 26 20 21 20 19 17 17 16 13 11 10 9 9 8 6 5 6 6 2 3 3 6 7 nan nan nan 9 9
nan nan nan nan nan nan nan nan nan nan nan nan nan nan nan nan nan 14 23 24 24 27 23 25 23 20 17 16 16 16 13 10 8 7 8 7 6 5 3 2 3 4 4 6 nan nan 9 8 7
nan nan nan nan nan nan nan nan 8 nan nan nan nan nan nan nan 10 14 18 20 22 24 22 24 23 23 21 18 17 16 16 14 12 9 7 7 8 6 2 0 2 4 4 4 4 nan nan nan nan
nan nan nan nan nan nan 15 18 18 nan nan nan nan nan nan nan 7 10 12 16 19 22 20 20 22 21 19 19 17 14 14 14 13 11 9 8 7 6 7 7 6 6 7 7 7 nan nan nan nan
nan nan nan nan nan nan 17 18 20 15 nan nan nan nan nan nan 9 10 11 14 16 16 16 15 17 19 17 15 14 14 14 12 11 11 10 9 8 7 5 5 6 6 7 8 8 nan nan nan nan
nan nan nan nan nan nan 20 23 20 24 nan nan nan nan nan nan 19 14 11 10 13 11 12 14 12 13 15 15 15 14 14 13 11 9 8 8 7 7 7 6 5 4 4 4 nan nan nan nan nan
nan nan nan nan nan 27 29 26 28 23 nan 16 nan nan 21 25 22 19 16 12 10 7 8 7 11 13 13 13 15 15 15 14 12 11 10 6 4 5 4 4 4 4 2 1 nan nan nan nan nan
nan nan nan nan nan 31 34 nan nan nan nan nan nan 26 29 25 23 nan nan nan 12 12 12 9 8 9 10 8 11 13 13 12 12 11 9 nan nan nan nan 6 5 4 4 3 nan nan nan nan nan
nan nan nan nan nan nan nan nan nan nan nan 25 27 23 25 26 23 21 18 14 12 nan 13 12 10 9 10 10 7 7 8 10 nan nan nan nan nan nan nan nan nan nan nan nan nan nan nan nan nan
nan nan nan nan nan nan nan nan nan nan nan 28 30 25 29 26 25 23 23 20 17 16 14 16 15 14 14 13 13 11 8 7 nan nan nan nan nan nan nan nan nan nan nan nan nan nan nan nan nan
nan nan nan nan nan nan nan nan nan nan nan 35 36 35 32 28 27 26 24 24 21 22 18 18 19 19 18 17 16 16 16 15 nan nan nan nan nan nan nan nan nan nan nan nan nan nan nan nan nan
nan nan nan nan nan nan nan nan nan nan nan 46 45 40 34 35 30 28 28 26 27 24 24 23 26 24 22 23 23 21 19 21 22 24 21 20 16 14 nan nan nan nan nan nan nan nan nan nan nan
nan nan nan nan nan nan nan nan nan nan nan nan nan 46 47 43 39 36 30 29 26 28 28 29 29 30 33 34 31 30 29 29 28 27 29 nan nan 24 22 nan 21 20 20 18 nan nan nan nan nan
nan nan nan nan nan nan nan nan nan nan nan nan nan 49 48 46 41 nan nan 31 29 30 33 33 34 33 37 35 34 33 32 33 33 33 32 33 31 nan nan nan nan 28 29 28 28 28 nan nan nan
nan nan nan nan nan nan nan nan nan nan nan nan nan nan nan nan nan nan nan nan nan 30 31 35 37 37 37 41 41 41 42 40 37 35 36 38 39 34 nan 36 36 35 nan nan 37 36 37 34 33
nan nan nan nan nan nan nan nan nan nan nan nan nan nan nan nan nan nan nan nan nan nan nan 38 40 41 41 41 39 39 37 38 37 37 nan nan nan nan nan nan nan nan 43 45 43 43 44 nan 44
nan nan nan nan nan nan nan nan nan nan nan nan nan nan nan nan nan nan nan nan nan nan nan nan nan nan 36 nan nan nan nan nan nan nan nan nan nan nan nan nan nan nan nan nan nan nan nan nan nan
nan nan nan nan nan nan nan nan nan nan nan nan nan nan nan nan nan nan nan nan nan nan nan nan nan nan nan nan nan nan nan nan nan nan nan nan nan nan nan nan nan nan nan nan nan nan nan nan nan
nan nan nan nan nan nan nan nan nan nan nan nan nan nan nan nan nan nan nan nan nan nan nan nan nan nan nan nan nan nan nan nan nan nan nan nan nan nan nan nan nan nan nan nan nan nan nan nan nan
nan nan nan nan nan nan nan nan nan nan nan nan nan nan nan nan nan nan nan nan nan nan nan nan nan nan nan nan nan nan nan nan nan nan nan nan nan nan nan nan nan nan nan nan nan nan nan nan nan
nan nan nan nan nan nan nan nan nan nan nan nan nan nan nan nan nan nan nan nan nan nan nan nan nan nan nan nan nan nan nan nan nan nan nan nan nan nan nan nan nan nan nan nan nan nan nan nan nan
nan nan nan nan nan nan nan nan nan nan nan nan nan nan nan nan nan nan nan nan nan nan nan nan nan nan nan nan nan nan nan nan nan nan nan nan nan nan nan nan nan nan nan nan nan nan nan nan nan
nan nan nan nan nan nan nan nan nan nan nan nan nan nan nan nan nan nan nan nan nan nan nan nan nan nan nan nan nan nan nan nan nan nan nan nan nan nan nan nan nan nan nan nan nan nan nan nan nan
nan nan nan nan nan nan nan nan nan nan nan nan nan nan nan nan nan nan nan nan nan nan nan nan nan nan nan nan nan nan nan nan nan nan nan nan nan nan nan nan nan nan nan nan nan nan nan nan nan
nan nan nan nan nan nan nan nan nan nan nan nan nan nan nan nan nan nan nan nan nan nan nan nan nan nan nan nan nan nan nan nan nan nan nan nan nan nan nan nan nan nan nan nan nan nan nan nan nan
nan nan nan nan nan nan nan nan nan nan nan nan nan nan nan nan nan nan nan nan nan nan nan nan nan nan nan nan nan nan nan nan nan nan nan nan nan nan nan nan nan nan nan nan nan nan nan nan nan
nan nan nan nan nan nan nan nan nan nan nan nan nan nan nan nan nan nan nan nan nan nan nan nan nan nan nan nan nan nan nan nan nan nan nan nan nan nan nan nan nan nan nan nan nan nan nan nan nan
nan nan nan nan nan nan nan nan nan nan nan nan nan nan nan nan nan nan nan nan nan nan nan nan nan nan nan nan nan nan nan nan nan nan nan nan nan nan nan nan nan nan nan nan nan nan nan nan nan
Wind_Direction
nan nan nan nan nan nan nan nan nan nan nan nan nan nan nan nan nan nan nan nan 354 358 14 32 36 33 29 28 29 35 37 25 4 343 334 323 312 320 332 350 37 309 273 250 240 238 241 236 231
nan nan nan nan nan nan nan nan nan nan nan nan nan nan nan nan nan nan nan 23 4 4 18 30 30 29 26 24 37 44 41 34 29 13 349 327 310 297 268 249 191 291 265 nan nan nan 267 257 235
nan nan nan nan nan nan nan nan nan nan nan nan nan nan nan nan nan nan 36 15 10 15 27 28 24 25 20 18 25 40 50 54 44 29 7 339 309 284 273 250 208 250 257 254 nan nan nan 252 245
nan nan nan nan nan nan nan nan nan nan nan nan nan nan nan nan nan 17 5 12 21 23 38 27 20 20 14 13 15 19 30 34 45 53 36 26 354 325 310 249 193 218 255 253 nan nan 254 252 236
nan nan nan nan nan nan nan nan 209 nan nan nan nan nan nan nan 315 332 350 4 12 27 43 39 27 21 13 9 11 12 12 20 28 34 52 59 49 44 43 144 158 203 204 202 197 nan nan nan nan
nan nan nan nan nan nan 223 217 228 nan nan nan nan nan nan nan 7 348 342 348 4 13 29 37 31 33 23 12 10 10 14 13 15 18 23 32 55 74 78 73 95 129 135 136 132 nan nan nan nan
nan nan nan nan nan nan 232 201 209 212 nan nan nan nan nan nan 318 337 347 343 351 2 11 24 28 28 30 25 16 11 9 11 13 13 11 6 10 26 44 68 81 81 93 101 118 nan nan nan nan
nan nan nan nan nan nan 240 221 225 220 nan nan nan nan nan nan 295 292 299 308 338 356 6 11 15 16 20 28 23 19 14 10 11 7 9 356 352 354 358 7 20 50 89 99 nan nan nan nan nan
nan nan nan nan nan 247 243 228 222 219 nan 212 nan nan 276 282 281 281 288 300 310 332 349 5 14 9 11 6 11 14 20 23 18 14 5 356 1 343 342 345 345 341 346 146 nan nan nan nan nan
nan nan nan nan nan 243 243 nan nan nan nan nan nan 244 256 257 263 nan nan nan 297 315 327 336 345 356 2 -0 354 356 3 13 21 23 17 nan nan nan nan 339 336 331 325 301 nan nan nan nan nan
nan nan nan nan nan nan nan nan nan nan nan 228 249 251 250 252 255 259 260 266 271 nan 312 311 316 321 329 326 329 340 346 347 nan nan nan nan nan nan nan nan nan nan nan nan nan nan nan nan nan
nan nan nan nan nan nan nan nan nan nan nan 244 249 244 244 249 258 255 258 256 262 268 267 305 303 304 305 305 313 313 309 310 nan nan nan nan nan nan nan nan nan nan nan nan nan nan nan nan nan
nan nan nan nan nan nan nan nan nan nan nan 246 251 245 237 259 260 255 256 258 260 260 261 268 296 302 303 297 296 292 294 302 nan nan nan nan nan nan nan nan nan nan nan nan nan nan nan nan nan
nan nan nan nan nan nan nan nan nan nan nan 251 251 247 245 255 259 258 250 252 255 259 259 264 268 274 295 294 286 282 284 280 278 278 271 265 275 279 nan nan nan nan nan nan nan nan nan nan nan
nan nan nan nan nan nan nan nan nan nan nan nan nan 253 255 257 259 256 253 251 254 259 260 261 264 264 272 272 274 276 277 277 276 275 266 nan nan 267 270 nan 277 274 280 279 nan nan nan nan nan
nan nan nan nan nan nan nan nan nan nan nan nan nan 255 256 256 256 nan nan 249 247 253 257 260 264 263 268 271 276 275 273 275 274 275 276 269 267 nan nan nan nan 266 268 277 279 278 nan nan nan
nan nan nan nan nan nan nan nan nan nan nan nan nan nan nan nan nan nan nan nan nan 249 254 261 262 263 267 269 272 272 274 274 273 275 274 271 269 267 nan 269 267 267 nan nan 267 269 276 274 271
nan nan nan nan nan nan nan nan nan nan nan nan nan nan nan nan nan nan nan nan nan nan nan 265 272 264 266 273 274 273 271 270 271 271 nan nan nan nan nan nan nan nan 272 271 269 267 269 nan 267
nan nan nan nan nan nan nan nan nan nan nan nan nan nan nan nan nan nan nan nan nan nan nan nan nan nan 263 nan nan nan nan nan nan nan nan nan nan nan nan nan nan nan nan nan nan nan nan nan nan
nan nan nan nan nan nan nan nan nan nan nan nan nan nan nan nan nan nan nan nan nan nan nan nan nan nan nan nan nan nan nan nan nan nan nan nan nan nan nan nan nan nan nan nan nan nan nan nan nan
nan nan nan nan nan nan nan nan nan nan nan nan nan nan nan nan nan nan nan nan nan nan nan nan nan nan nan nan nan nan nan nan nan nan nan nan nan nan nan nan nan nan nan nan nan nan nan nan nan
nan nan nan nan nan nan nan nan nan nan nan nan nan nan nan nan nan nan nan nan nan nan nan nan nan nan nan nan nan nan nan nan nan nan nan nan nan nan nan nan nan nan nan nan nan nan nan nan nan
nan nan nan nan nan nan nan nan nan nan nan nan nan nan nan nan nan nan nan nan nan nan nan nan nan nan nan nan nan nan nan nan nan nan nan nan nan nan nan nan nan nan nan nan nan nan nan nan nan
nan nan nan nan nan nan nan nan nan nan nan nan nan nan nan nan nan nan nan nan nan nan nan nan nan nan nan nan nan nan nan nan nan nan nan nan nan nan nan nan nan nan nan nan nan nan nan nan nan
nan nan nan nan nan nan nan nan nan nan nan nan nan nan nan nan nan nan nan nan nan nan nan nan nan nan nan nan nan nan nan nan nan nan nan nan nan nan nan nan nan nan nan nan nan nan nan nan nan
nan nan nan nan nan nan nan nan nan nan nan nan nan nan nan nan nan nan nan nan nan nan nan nan nan nan nan nan nan nan nan nan nan nan nan nan nan nan nan nan nan nan nan nan nan nan nan nan nan
nan nan nan nan nan nan nan nan nan nan nan nan nan nan nan nan nan nan nan nan nan nan nan nan nan nan nan nan nan nan nan nan nan nan nan nan nan nan nan nan nan nan nan nan nan nan nan nan nan
nan nan nan nan nan nan nan nan nan nan nan nan nan nan nan nan nan nan nan nan nan nan nan nan nan nan nan nan nan nan nan nan nan nan nan nan nan nan nan nan nan nan nan nan nan nan nan nan nan
nan nan nan nan nan nan nan nan nan nan nan nan nan nan nan nan nan nan nan nan nan nan nan nan nan nan nan nan nan nan nan nan nan nan nan nan nan nan nan nan nan nan nan nan nan nan nan nan nan
nan nan nan nan nan nan nan nan nan nan nan nan nan nan nan nan nan nan nan nan nan nan nan nan nan nan nan nan nan nan nan nan nan nan nan nan nan nan nan nan nan nan nan nan nan nan nan nan nan